Location: *
(46.0770°N, 1.6444°E)
Time: 07:49:11
(UTC+00:00)

Cosmos 1378 - Pass Details

Date: 16 September 2019
Orbit: 493 x 503 km, 82.5° (Epoch: 20 October)

Event Time Altitude Azimuth Distance (km) Brightness Sun altitude
Rises 19:00:16 0° 347° (NNW) 2,614 7.2 -10.5°
Reaches altitude 10° 19:02:25 10° 344° (NNW) 1,724 6.3 -10.9°
Maximum altitude 19:06:09 62° 264° (W) 573 3.7 -11.5°
Drops below altitude 10° 19:09:50 10° 184° (S) 1,706 5.7 -12.1°
Sets 19:11:57 0° 181° (S) 2,583 6.6 -12.5°
